Big Bear Station Historical Data
Daily Summary for February 8, 2017 Units:  English    Metric   Both
« Previous Day
Next Day »
Daily Weekly Monthly Yearly Custom
  High: Low: Average:
Temperature: 55.2 °F 32.0 °F 42.1 °F
Dew Point: 41.9 °F 28.9 °F 35.3 °F
Humidity: 99 % 42 % 79 %
Wind Speed: 2.7 mph 0.0 mph 0.9 mph
Wind Gust: -999.0 mph - -
Wind:- - SSW
Pressure: 30.31 in 30.22 in -
Precipitation: 0.00 in    
Historical Graphs
 
 
Tabular Data for February 8, 2017
Time Temperature Dew Point Pressure Wind Wind Speed Wind Gust Humidity Rainfall Rate (Hourly)
00:08 42.4 °F 40.0 °F 30.23 in South 2.7 mph -999.0 mph 91 % 0 in
00:23 42.4 °F 40.5 °F 30.23 in Calm   -999.0 mph 93 % 0 in
00:39 41.4 °F 40.1 °F 30.23 in SSW 2.2 mph -999.0 mph 95 % 0 in
00:54 41.2 °F 40.4 °F 30.23 in South 2.7 mph -999.0 mph 97 % 0 in
01:09 40.8 °F 40.0 °F 30.24 in SSW 1.7 mph -999.0 mph 97 % 0 in
01:24 39.9 °F 39.4 °F 30.23 in Calm   -999.0 mph 98 % 0 in
01:39 39.4 °F 38.9 °F 30.23 in South 1.7 mph -999.0 mph 98 % 0 in
01:55 38.5 °F 38.0 °F 30.24 in South 1.7 mph -999.0 mph 98 % 0 in
02:10 38.7 °F 38.2 °F 30.24 in Calm   -999.0 mph 98 % 0 in
02:25 38.1 °F 37.6 °F 30.24 in SSE 1.7 mph -999.0 mph 98 % 0 in
02:40 37.4 °F 36.9 °F 30.23 in SW 1.1 mph -999.0 mph 98 % 0 in
02:56 36.9 °F 36.4 °F 30.23 in South 1.7 mph -999.0 mph 98 % 0 in
03:11 36.1 °F 35.6 °F 30.22 in Calm   -999.0 mph 98 % 0 in
03:26 35.6 °F 35.1 °F 30.23 in Calm   -999.0 mph 98 % 0 in
03:41 35.4 °F 34.9 °F 30.23 in South 2.2 mph -999.0 mph 98 % 0 in
03:56 35.6 °F 35.3 °F 30.23 in WNW 1.1 mph -999.0 mph 99 % 0 in
04:12 35.6 °F 35.3 °F 30.23 in Calm   -999.0 mph 99 % 0 in
04:27 36.3 °F 36.0 °F 30.23 in North 1.7 mph -999.0 mph 99 % 0 in
04:42 36.3 °F 36.0 °F 30.23 in Calm   -999.0 mph 99 % 0 in
04:58 35.8 °F 35.5 °F 30.23 in SW 1.7 mph -999.0 mph 99 % 0 in
05:13 35.6 °F 35.3 °F 30.23 in Calm   -999.0 mph 99 % 0 in
05:28 35.8 °F 35.5 °F 30.24 in Calm   -999.0 mph 99 % 0 in
05:43 35.8 °F 35.5 °F 30.24 in South 2.7 mph -999.0 mph 99 % 0 in
05:58 36.0 °F 35.7 °F 30.25 in SW 1.1 mph -999.0 mph 99 % 0 in
06:14 36.5 °F 36.2 °F 30.25 in SE 1.7 mph -999.0 mph 99 % 0 in
06:29 38.3 °F 38.0 °F 30.25 in Calm   -999.0 mph 99 % 0 in
06:44 37.6 °F 37.3 °F 30.25 in Calm   -999.0 mph 99 % 0 in
06:59 37.2 °F 36.9 °F 30.26 in Calm   -999.0 mph 99 % 0 in
07:14 37.8 °F 37.5 °F 30.26 in South 2.2 mph -999.0 mph 99 % 0 in
07:30 39.9 °F 39.6 °F 30.26 in SSW 1.7 mph -999.0 mph 99 % 0 in
07:45 39.6 °F 39.3 °F 30.27 in Calm   -999.0 mph 99 % 0 in
08:00 40.5 °F 40.2 °F 30.27 in ESE 1.1 mph -999.0 mph 99 % 0 in
08:15 41.0 °F 40.7 °F 30.27 in Calm   -999.0 mph 99 % 0 in
08:30 41.5 °F 41.2 °F 30.27 in Calm   -999.0 mph 99 % 0 in
08:46 41.9 °F 41.6 °F 30.28 in Calm   -999.0 mph 99 % 0 in
09:01 42.1 °F 41.8 °F 30.28 in Calm   -999.0 mph 99 % 0 in
09:16 43.0 °F 41.9 °F 30.29 in Calm   -999.0 mph 96 % 0 in
09:31 43.5 °F 40.8 °F 30.29 in Calm   -999.0 mph 90 % 0 in
09:46 44.2 °F 40.6 °F 30.29 in WNW 1.1 mph -999.0 mph 87 % 0 in
10:02 46.2 °F 41.0 °F 30.30 in Calm   -999.0 mph 82 % 0 in
10:17 47.7 °F 41.5 °F 30.30 in Calm   -999.0 mph 79 % 0 in
10:32 49.5 °F 41.6 °F 30.30 in ESE 1.1 mph -999.0 mph 74 % 0 in
10:47 50.2 °F 41.5 °F 30.30 in WNW 2.2 mph -999.0 mph 72 % 0 in
11:03 52.5 °F 37.3 °F 30.30 in SE 1.1 mph -999.0 mph 56 % 0 in
11:18 53.4 °F 34.2 °F 30.29 in SSW 2.2 mph -999.0 mph 48 % 0 in
11:33 52.2 °F 35.1 °F 30.29 in NNE 2.2 mph -999.0 mph 52 % 0 in
11:48 54.3 °F 35.0 °F 30.29 in Calm   -999.0 mph 48 % 0 in
12:03 53.4 °F 36.7 °F 30.29 in NE 1.7 mph -999.0 mph 53 % 0 in
12:19 53.1 °F 37.4 °F 30.28 in Calm   -999.0 mph 55 % 0 in
12:34 55.2 °F 37.4 °F 30.27 in NW 1.7 mph -999.0 mph 51 % 0 in
12:49 55.0 °F 37.7 °F 30.26 in SW 1.7 mph -999.0 mph 52 % 0 in
13:04 54.0 °F 36.8 °F 30.26 in East 1.7 mph -999.0 mph 52 % 0 in
13:19 53.6 °F 36.4 °F 30.26 in NNW 2.7 mph -999.0 mph 52 % 0 in
13:35 52.9 °F 35.7 °F 30.26 in NW 2.2 mph -999.0 mph 52 % 0 in
13:50 52.0 °F 36.8 °F 30.26 in NW 2.2 mph -999.0 mph 56 % 0 in
14:05 52.5 °F 36.3 °F 30.26 in ESE 1.7 mph -999.0 mph 54 % 0 in
14:20 52.9 °F 36.7 °F 30.26 in Calm   -999.0 mph 54 % 0 in
14:35 53.6 °F 35.9 °F 30.25 in Calm   -999.0 mph 51 % 0 in
14:51 53.8 °F 35.6 °F 30.25 in Calm   -999.0 mph 50 % 0 in
15:06 54.1 °F 34.3 °F 30.25 in ESE 1.1 mph -999.0 mph 47 % 0 in
15:21 54.9 °F 34.5 °F 30.25 in Calm   -999.0 mph 46 % 0 in
15:36 54.9 °F 32.2 °F 30.25 in Calm   -999.0 mph 42 % 0 in
15:51 53.4 °F 33.1 °F 30.25 in Calm   -999.0 mph 46 % 0 in
16:07 52.3 °F 34.2 °F 30.25 in SSE 1.7 mph -999.0 mph 50 % 0 in
16:22 50.0 °F 33.5 °F 30.25 in Calm   -999.0 mph 53 % 0 in
16:37 47.8 °F 34.6 °F 30.25 in South 1.1 mph -999.0 mph 60 % 0 in
16:52 46.4 °F 34.9 °F 30.25 in South 2.2 mph -999.0 mph 64 % 0 in
17:08 45.1 °F 34.8 °F 30.25 in SSW 1.7 mph -999.0 mph 67 % 0 in
17:23 43.2 °F 33.0 °F 30.25 in South 1.7 mph -999.0 mph 67 % 0 in
17:39 42.1 °F 31.6 °F 30.25 in South 2.7 mph -999.0 mph 66 % 0 in
17:54 41.2 °F 31.4 °F 30.26 in Calm   -999.0 mph 68 % 0 in
18:09 40.5 °F 30.8 °F 30.26 in Calm   -999.0 mph 68 % 0 in
18:24 39.4 °F 30.4 °F 30.26 in Calm   -999.0 mph 70 % 0 in
18:39 38.8 °F 30.9 °F 30.26 in South 1.7 mph -999.0 mph 73 % 0 in
18:55 37.9 °F 30.0 °F 30.27 in Calm   -999.0 mph 73 % 0 in
19:10 37.2 °F 29.3 °F 30.27 in Calm   -999.0 mph 73 % 0 in
19:26 36.9 °F 29.7 °F 30.27 in Calm   -999.0 mph 75 % 0 in
19:41 36.5 °F 30.3 °F 30.28 in SSE 1.7 mph -999.0 mph 78 % 0 in
19:56 36.3 °F 30.1 °F 30.28 in NW 1.7 mph -999.0 mph 78 % 0 in
20:11 36.0 °F 30.1 °F 30.28 in Calm   -999.0 mph 79 % 0 in
20:26 35.6 °F 30.0 °F 30.28 in Calm   -999.0 mph 80 % 0 in
20:42 35.8 °F 30.5 °F 30.29 in SSE 1.1 mph -999.0 mph 81 % 0 in
20:57 35.1 °F 29.9 °F 30.29 in Calm   -999.0 mph 81 % 0 in
21:12 34.9 °F 30.0 °F 30.29 in Calm   -999.0 mph 82 % 0 in
21:28 34.5 °F 29.6 °F 30.29 in Calm   -999.0 mph 82 % 0 in
21:43 34.2 °F 29.3 °F 30.30 in Calm   -999.0 mph 82 % 0 in
21:58 34.0 °F 29.4 °F 30.30 in Calm   -999.0 mph 83 % 0 in
22:13 33.6 °F 29.0 °F 30.30 in Calm   -999.0 mph 83 % 0 in
22:28 33.3 °F 29.0 °F 30.30 in Calm   -999.0 mph 84 % 0 in
22:44 32.9 °F 28.9 °F 30.31 in South 1.1 mph -999.0 mph 85 % 0 in
22:59 32.7 °F 29.0 °F 30.31 in Calm   -999.0 mph 86 % 0 in
23:14 32.5 °F 29.1 °F 30.31 in Calm   -999.0 mph 87 % 0 in
23:29 32.2 °F 29.0 °F 30.31 in Calm   -999.0 mph 88 % 0 in
23:44 32.0 °F 29.1 °F 30.31 in NW 1.1 mph -999.0 mph 89 % 0 in
Big Bear CA Weather
Compliments of Weather Underground - 1.5 mb